Location: Newark
(37.9500°N, 13.4167°E)
Time: 03:37:44
(UTC+00:00)

LightSail 2 - Visible Passes

Search period start: 26 January 2020 00:00
Search period end: 05 February 2020 00:00
Orbit: 704 x 719 km, 24.0° (Epoch: 25 January)

Date Brightness Start Highest point End Pass type
(mag) Time Alt. Az. Time Alt. Az. Time Alt. Az.
26 Jan 7.7 18:06:11 10° SSW 18:07:48 11° SSW 18:09:27 10° S visible
27 Jan 7.6 17:07:08 10° SW 17:09:34 13° S 17:12:00 10° SSE visible
29 Jan 8.0 16:57:13 10° SSW 16:57:41 10° SSW 16:58:10 10° S visible
